Year,Month,Day,Hour,Minute,Value (Times are PST for temperature in C)
2017,10,25,00,00,7.80
2017,10,25,00,01,7.80
2017,10,25,00,02,7.80
2017,10,25,00,03,7.80
2017,10,25,00,04,7.80
2017,10,25,00,05,7.80
2017,10,25,00,06,7.80
2017,10,25,00,07,7.80
2017,10,25,00,08,7.80
2017,10,25,00,09,7.80
2017,10,25,00,10,7.80
2017,10,25,00,11,7.80
2017,10,25,00,12,7.80
2017,10,25,00,13,7.70
2017,10,25,00,14,7.70
2017,10,25,00,15,7.70
2017,10,25,00,16,7.70
2017,10,25,00,17,7.70
2017,10,25,00,18,7.70
2017,10,25,00,19,7.70
2017,10,25,00,20,7.70
2017,10,25,00,21,7.70
2017,10,25,00,22,7.70
2017,10,25,00,23,7.80
2017,10,25,00,24,7.80
2017,10,25,00,25,7.80
2017,10,25,00,26,7.80
2017,10,25,00,27,7.80
2017,10,25,00,28,7.90
2017,10,25,00,29,7.90
2017,10,25,00,30,7.90
2017,10,25,00,31,8.00
2017,10,25,00,32,8.00
2017,10,25,00,33,8.00
2017,10,25,00,34,8.00
2017,10,25,00,35,7.90
2017,10,25,00,36,7.90
2017,10,25,00,37,7.90
2017,10,25,00,38,7.90
2017,10,25,00,39,7.90
2017,10,25,00,40,7.90
2017,10,25,00,41,7.90
2017,10,25,00,42,7.90
2017,10,25,00,43,7.90
2017,10,25,00,44,7.90
2017,10,25,00,45,7.80
2017,10,25,00,46,7.80
2017,10,25,00,47,7.80
2017,10,25,00,48,7.80
2017,10,25,00,49,7.80
2017,10,25,00,50,7.80
2017,10,25,00,51,7.80
2017,10,25,00,52,7.80
2017,10,25,00,53,7.70
2017,10,25,00,54,7.70
2017,10,25,00,55,7.70
2017,10,25,00,56,7.60
2017,10,25,00,57,7.60
2017,10,25,00,58,7.60
2017,10,25,00,59,7.60
2017,10,25,01,00,7.60
2017,10,25,01,01,7.60
2017,10,25,01,02,7.60
2017,10,25,01,03,7.60
2017,10,25,01,04,7.60
2017,10,25,01,05,7.60
2017,10,25,01,06,7.60
2017,10,25,01,07,7.60
2017,10,25,01,08,7.60
2017,10,25,01,09,7.60
2017,10,25,01,10,7.60
2017,10,25,01,11,7.60
2017,10,25,01,12,7.60
2017,10,25,01,13,7.60
2017,10,25,01,14,7.60
2017,10,25,01,15,7.60
2017,10,25,01,16,7.60
2017,10,25,01,17,7.60
2017,10,25,01,18,7.50
2017,10,25,01,19,7.50
2017,10,25,01,20,7.50
2017,10,25,01,21,7.40
2017,10,25,01,22,7.40
2017,10,25,01,23,7.40
2017,10,25,01,24,7.40
2017,10,25,01,25,7.40
2017,10,25,01,26,7.40
2017,10,25,01,27,7.40
2017,10,25,01,28,7.40
2017,10,25,01,29,7.40
2017,10,25,01,30,7.40
2017,10,25,01,31,7.50
2017,10,25,01,32,7.50
2017,10,25,01,33,7.60
2017,10,25,01,34,7.70
2017,10,25,01,35,7.70
2017,10,25,01,36,7.80
2017,10,25,01,37,7.80
2017,10,25,01,38,7.90
2017,10,25,01,39,7.90
2017,10,25,01,40,7.90
2017,10,25,01,41,7.90
2017,10,25,01,42,8.00
2017,10,25,01,43,8.00
2017,10,25,01,44,8.00
2017,10,25,01,45,8.10
2017,10,25,01,46,8.10
2017,10,25,01,47,8.10
2017,10,25,01,48,8.10
2017,10,25,01,49,8.10
2017,10,25,01,50,8.10
2017,10,25,01,51,8.10
2017,10,25,01,52,8.20
2017,10,25,01,53,8.20
2017,10,25,01,54,8.20
2017,10,25,01,55,8.20
2017,10,25,01,56,8.10
2017,10,25,01,57,8.10
2017,10,25,01,58,8.10
2017,10,25,01,59,8.10
2017,10,25,02,00,8.10
2017,10,25,02,01,8.10
2017,10,25,02,02,8.00
2017,10,25,02,03,8.00
2017,10,25,02,04,8.00
2017,10,25,02,05,8.00
2017,10,25,02,06,8.00
2017,10,25,02,07,8.00
2017,10,25,02,08,8.00
2017,10,25,02,09,8.00
2017,10,25,02,10,8.00
2017,10,25,02,11,8.10
2017,10,25,02,12,8.10
2017,10,25,02,13,8.10
2017,10,25,02,14,8.10
2017,10,25,02,15,8.10
2017,10,25,02,16,8.10
2017,10,25,02,17,8.00
2017,10,25,02,18,8.00
2017,10,25,02,19,8.10
2017,10,25,02,20,8.10
2017,10,25,02,21,8.20
2017,10,25,02,22,8.10
2017,10,25,02,23,8.00
2017,10,25,02,24,8.00
2017,10,25,02,25,7.90
2017,10,25,02,26,7.80
2017,10,25,02,27,7.80
2017,10,25,02,28,7.80
2017,10,25,02,29,7.90
2017,10,25,02,30,8.00
2017,10,25,02,31,8.10
2017,10,25,02,32,8.10
2017,10,25,02,33,8.20
2017,10,25,02,34,8.20
2017,10,25,02,35,8.30
2017,10,25,02,36,8.30
2017,10,25,02,37,8.30
2017,10,25,02,38,8.40
2017,10,25,02,39,8.40
2017,10,25,02,40,8.40
2017,10,25,02,41,8.50
2017,10,25,02,42,8.50
2017,10,25,02,43,8.50
2017,10,25,02,44,8.50
2017,10,25,02,45,8.50
2017,10,25,02,46,8.60
2017,10,25,02,47,8.60
2017,10,25,02,48,8.60
2017,10,25,02,49,8.60
2017,10,25,02,50,8.60
2017,10,25,02,51,8.50
2017,10,25,02,52,8.50
2017,10,25,02,53,8.50
2017,10,25,02,54,8.40
2017,10,25,02,55,8.40
2017,10,25,02,56,8.30
2017,10,25,02,57,8.30
2017,10,25,02,58,8.30
2017,10,25,02,59,8.30
2017,10,25,03,00,8.30
2017,10,25,03,01,8.30
2017,10,25,03,02,8.30
2017,10,25,03,03,8.30
2017,10,25,03,04,8.30
2017,10,25,03,05,8.30
2017,10,25,03,06,8.30
2017,10,25,03,07,8.30
2017,10,25,03,08,8.30
2017,10,25,03,09,8.30
2017,10,25,03,10,8.30
2017,10,25,03,11,8.30
2017,10,25,03,12,8.30
2017,10,25,03,13,8.20
2017,10,25,03,14,8.20
2017,10,25,03,15,8.20
2017,10,25,03,16,8.20
2017,10,25,03,17,8.20
2017,10,25,03,18,8.20
2017,10,25,03,19,8.20
2017,10,25,03,20,8.30
2017,10,25,03,21,8.30
2017,10,25,03,22,8.30
2017,10,25,03,23,8.40
2017,10,25,03,24,8.40
2017,10,25,03,25,8.40
2017,10,25,03,26,8.50
2017,10,25,03,27,8.60
2017,10,25,03,28,8.60
2017,10,25,03,29,8.60
2017,10,25,03,30,8.70
2017,10,25,03,31,8.70
2017,10,25,03,32,8.80
2017,10,25,03,33,8.80
2017,10,25,03,34,8.80
2017,10,25,03,35,8.80
2017,10,25,03,36,8.80
2017,10,25,03,37,8.80
2017,10,25,03,38,8.80
2017,10,25,03,39,8.80
2017,10,25,03,40,8.80
2017,10,25,03,41,8.70
2017,10,25,03,42,8.70
2017,10,25,03,43,8.70
2017,10,25,03,44,8.70
2017,10,25,03,45,8.70
2017,10,25,03,46,8.80
2017,10,25,03,47,8.80
2017,10,25,03,48,8.80
2017,10,25,03,49,8.80
2017,10,25,03,50,8.90
2017,10,25,03,51,8.90
2017,10,25,03,52,9.00
2017,10,25,03,53,9.10
2017,10,25,03,54,9.20
2017,10,25,03,55,9.20
2017,10,25,03,56,9.30
2017,10,25,03,57,9.30
2017,10,25,03,58,9.30
2017,10,25,03,59,9.40
2017,10,25,04,00,9.40
2017,10,25,04,01,9.50
2017,10,25,04,02,9.50
2017,10,25,04,03,9.50
2017,10,25,04,04,9.60
2017,10,25,04,05,9.60
2017,10,25,04,06,9.60
2017,10,25,04,07,9.70
2017,10,25,04,08,9.70
2017,10,25,04,09,9.70
2017,10,25,04,10,9.70
2017,10,25,04,11,9.70
2017,10,25,04,12,9.70
2017,10,25,04,13,9.80
2017,10,25,04,14,9.80
2017,10,25,04,15,9.80
2017,10,25,04,16,9.80
2017,10,25,04,17,9.90
2017,10,25,04,18,9.90
2017,10,25,04,19,9.90
2017,10,25,04,20,9.90
2017,10,25,04,21,9.90
2017,10,25,04,22,9.90
2017,10,25,04,23,9.90
2017,10,25,04,24,10.00
2017,10,25,04,25,10.00
2017,10,25,04,26,10.00
2017,10,25,04,27,9.90
2017,10,25,04,28,9.90
2017,10,25,04,29,10.00
2017,10,25,04,30,10.00
2017,10,25,04,31,10.10
2017,10,25,04,32,10.10
2017,10,25,04,33,10.20
2017,10,25,04,34,10.10
2017,10,25,04,35,10.10
2017,10,25,04,36,10.10
2017,10,25,04,37,10.10
2017,10,25,04,38,10.10
2017,10,25,04,39,10.20
2017,10,25,04,40,10.30
2017,10,25,04,41,10.30
2017,10,25,04,42,10.40
2017,10,25,04,43,10.40
2017,10,25,04,44,10.50
2017,10,25,04,45,10.50
2017,10,25,04,46,10.50
2017,10,25,04,47,10.60
2017,10,25,04,48,10.60
2017,10,25,04,49,10.60
2017,10,25,04,50,10.60
2017,10,25,04,51,10.60
2017,10,25,04,52,10.70
2017,10,25,04,53,10.70
2017,10,25,04,54,10.70
2017,10,25,04,55,10.70
2017,10,25,04,56,10.70
2017,10,25,04,57,10.70
2017,10,25,04,58,10.60
2017,10,25,04,59,10.60
2017,10,25,05,00,10.60
2017,10,25,05,01,10.60
2017,10,25,05,02,10.60
2017,10,25,05,03,10.60
2017,10,25,05,04,10.60
2017,10,25,05,05,10.60
2017,10,25,05,06,10.60
2017,10,25,05,07,10.60
2017,10,25,05,08,10.60
2017,10,25,05,09,10.60
2017,10,25,05,10,10.60
2017,10,25,05,11,10.60
2017,10,25,05,12,10.60
2017,10,25,05,13,10.50
2017,10,25,05,14,10.50
2017,10,25,05,15,10.50
2017,10,25,05,16,10.40
2017,10,25,05,17,10.40
2017,10,25,05,18,10.40
2017,10,25,05,19,10.40
2017,10,25,05,20,10.30
2017,10,25,05,21,10.30
2017,10,25,05,22,10.30
2017,10,25,05,23,10.30
2017,10,25,05,24,10.30
2017,10,25,05,25,10.30
2017,10,25,05,26,10.30
2017,10,25,05,27,10.30
2017,10,25,05,28,10.30
2017,10,25,05,29,10.30
2017,10,25,05,30,10.30
2017,10,25,05,31,10.30
2017,10,25,05,32,10.30
2017,10,25,05,33,10.30
2017,10,25,05,34,10.30
2017,10,25,05,35,10.30
2017,10,25,05,36,10.30
2017,10,25,05,37,10.30
2017,10,25,05,38,10.40
2017,10,25,05,39,10.30
2017,10,25,05,40,10.40
2017,10,25,05,41,10.30
2017,10,25,05,42,10.30
2017,10,25,05,43,10.30
2017,10,25,05,44,10.30
2017,10,25,05,45,10.30
2017,10,25,05,46,10.30
2017,10,25,05,47,10.30
2017,10,25,05,48,10.30
2017,10,25,05,49,10.30
2017,10,25,05,50,10.30
2017,10,25,05,51,10.30
2017,10,25,05,52,10.30
2017,10,25,05,53,10.30
2017,10,25,05,54,10.30
2017,10,25,05,55,10.30
2017,10,25,05,56,10.30
2017,10,25,05,57,10.30
2017,10,25,05,58,10.30
2017,10,25,05,59,10.40
2017,10,25,06,00,10.40
2017,10,25,06,01,10.40
2017,10,25,06,02,10.50
2017,10,25,06,03,10.50
2017,10,25,06,04,10.60
2017,10,25,06,05,10.60
2017,10,25,06,06,10.60
2017,10,25,06,07,10.60
2017,10,25,06,08,10.60
2017,10,25,06,09,10.60
2017,10,25,06,10,10.60
2017,10,25,06,11,10.60
2017,10,25,06,12,10.60
2017,10,25,06,13,10.60
2017,10,25,06,14,10.60
2017,10,25,06,15,10.50
2017,10,25,06,16,10.50
2017,10,25,06,17,10.50
2017,10,25,06,18,10.50
2017,10,25,06,19,10.50
2017,10,25,06,20,10.50
2017,10,25,06,21,10.50
2017,10,25,06,22,10.50
2017,10,25,06,23,10.60
2017,10,25,06,24,10.60
2017,10,25,06,25,10.60
2017,10,25,06,26,10.60
2017,10,25,06,27,10.60
2017,10,25,06,28,10.60
2017,10,25,06,29,10.60
2017,10,25,06,30,10.60
2017,10,25,06,31,10.60
2017,10,25,06,32,10.70
2017,10,25,06,33,10.70
2017,10,25,06,34,10.70
2017,10,25,06,35,10.70
2017,10,25,06,36,10.70
2017,10,25,06,37,10.70
2017,10,25,06,38,10.70
2017,10,25,06,39,10.70
2017,10,25,06,40,10.70
2017,10,25,06,41,10.70
2017,10,25,06,42,10.70
2017,10,25,06,43,10.70
2017,10,25,06,44,10.70
2017,10,25,06,45,10.70
2017,10,25,06,46,10.70
2017,10,25,06,47,10.70
2017,10,25,06,48,10.70
2017,10,25,06,49,10.70
2017,10,25,06,50,10.80
2017,10,25,06,51,10.80
2017,10,25,06,52,10.80
2017,10,25,06,53,10.80
2017,10,25,06,54,10.80
2017,10,25,06,55,10.80
2017,10,25,06,56,10.80
2017,10,25,06,57,10.80
2017,10,25,06,58,10.80
2017,10,25,06,59,10.80
2017,10,25,07,00,10.80
2017,10,25,07,01,10.80
2017,10,25,07,02,10.80
2017,10,25,07,03,10.80
2017,10,25,07,04,10.80
2017,10,25,07,05,10.80
2017,10,25,07,06,10.80
2017,10,25,07,07,10.80
2017,10,25,07,08,10.80
2017,10,25,07,09,10.80
2017,10,25,07,10,10.80
2017,10,25,07,11,10.80
2017,10,25,07,12,10.90
2017,10,25,07,13,10.90
2017,10,25,07,14,10.90
2017,10,25,07,15,10.90
2017,10,25,07,16,11.00
2017,10,25,07,17,11.00
2017,10,25,07,18,11.10
2017,10,25,07,19,11.10
2017,10,25,07,20,11.20
2017,10,25,07,21,11.20
2017,10,25,07,22,11.30
2017,10,25,07,23,11.40
2017,10,25,07,24,11.40
2017,10,25,07,25,11.40
2017,10,25,07,26,11.50
2017,10,25,07,27,11.50
2017,10,25,07,28,11.60
2017,10,25,07,29,11.60
2017,10,25,07,30,11.70
2017,10,25,07,31,11.70
2017,10,25,07,32,11.70
2017,10,25,07,33,11.70
2017,10,25,07,34,11.80
2017,10,25,07,35,11.90
2017,10,25,07,36,12.00
2017,10,25,07,37,12.00
2017,10,25,07,38,12.10
2017,10,25,07,39,12.20
2017,10,25,07,40,12.20
2017,10,25,07,41,12.30
2017,10,25,07,42,12.30
2017,10,25,07,43,12.30
2017,10,25,07,44,12.40
2017,10,25,07,45,12.40
2017,10,25,07,46,12.40
2017,10,25,07,47,12.50
2017,10,25,07,48,12.50
2017,10,25,07,49,12.60
2017,10,25,07,50,12.60
2017,10,25,07,51,12.70
2017,10,25,07,52,12.70
2017,10,25,07,53,12.70
2017,10,25,07,54,12.70
2017,10,25,07,55,12.80
2017,10,25,07,56,12.80
2017,10,25,07,57,12.80
2017,10,25,07,58,12.80
2017,10,25,07,59,12.80
2017,10,25,08,00,12.80
2017,10,25,08,01,12.90
2017,10,25,08,02,12.90
2017,10,25,08,03,12.90
2017,10,25,08,04,12.90
2017,10,25,08,05,12.90
2017,10,25,08,06,13.00
2017,10,25,08,07,13.00
2017,10,25,08,08,13.00
2017,10,25,08,09,13.10
2017,10,25,08,10,13.10
2017,10,25,08,11,13.10
2017,10,25,08,12,13.20
2017,10,25,08,13,13.20
2017,10,25,08,14,13.20
2017,10,25,08,15,13.20
2017,10,25,08,16,13.30
2017,10,25,08,17,13.30
2017,10,25,08,18,13.30
2017,10,25,08,19,13.30
2017,10,25,08,20,13.30
2017,10,25,08,21,13.30
2017,10,25,08,22,13.30
2017,10,25,08,23,13.30
2017,10,25,08,24,13.30
2017,10,25,08,25,13.30
2017,10,25,08,26,13.30
2017,10,25,08,27,13.30
2017,10,25,08,28,13.30
2017,10,25,08,29,13.30
2017,10,25,08,30,13.30
2017,10,25,08,31,13.20
2017,10,25,08,32,13.20
2017,10,25,08,33,13.20
2017,10,25,08,34,13.20
2017,10,25,08,35,13.10
2017,10,25,08,36,13.10
2017,10,25,08,37,13.10
2017,10,25,08,38,13.10
2017,10,25,08,39,13.10
2017,10,25,08,40,13.10
2017,10,25,08,41,13.10
2017,10,25,08,42,13.10
2017,10,25,08,43,13.10
2017,10,25,08,44,13.10
2017,10,25,08,45,13.10
2017,10,25,08,46,13.10
2017,10,25,08,47,13.10
2017,10,25,08,48,13.00
2017,10,25,08,49,13.00
2017,10,25,08,50,13.00
2017,10,25,08,51,13.00
2017,10,25,08,52,13.00
2017,10,25,08,53,13.00
2017,10,25,08,54,13.00
2017,10,25,08,55,12.90
2017,10,25,08,56,12.90
2017,10,25,08,57,12.90
2017,10,25,08,58,12.90
2017,10,25,08,59,12.90
2017,10,25,09,00,12.90
2017,10,25,09,01,12.80
2017,10,25,09,02,12.80
2017,10,25,09,03,12.80
2017,10,25,09,04,12.80
2017,10,25,09,05,12.80
2017,10,25,09,06,12.80
2017,10,25,09,07,12.80
2017,10,25,09,08,12.80
2017,10,25,09,09,12.70
2017,10,25,09,10,12.70
2017,10,25,09,11,12.70
2017,10,25,09,12,12.70
2017,10,25,09,13,12.70
2017,10,25,09,14,12.70
2017,10,25,09,15,12.70
2017,10,25,09,16,12.70
2017,10,25,09,17,12.70
2017,10,25,09,18,12.70
2017,10,25,09,19,12.70
2017,10,25,09,20,12.70
2017,10,25,09,21,12.80
2017,10,25,09,22,12.80
2017,10,25,09,23,12.80
2017,10,25,09,24,12.80
2017,10,25,09,25,12.80
2017,10,25,09,26,12.80
2017,10,25,09,27,12.90
2017,10,25,09,28,12.90
2017,10,25,09,29,12.90
2017,10,25,09,30,12.90
2017,10,25,09,31,12.90
2017,10,25,09,32,12.90
2017,10,25,09,33,12.90
2017,10,25,09,34,12.90
2017,10,25,09,35,12.90
2017,10,25,09,36,12.90
2017,10,25,09,37,12.90
2017,10,25,09,38,12.90
2017,10,25,09,39,12.90
2017,10,25,09,40,12.90
2017,10,25,09,41,13.00
2017,10,25,09,42,13.00
2017,10,25,09,43,13.00
2017,10,25,09,44,13.10
2017,10,25,09,45,13.10
2017,10,25,09,46,13.10
2017,10,25,09,47,13.10
2017,10,25,09,48,13.10
2017,10,25,09,49,13.10
2017,10,25,09,50,13.10
2017,10,25,09,51,13.10
2017,10,25,09,52,13.10
2017,10,25,09,53,13.10
2017,10,25,09,54,13.10
2017,10,25,09,55,13.10
2017,10,25,09,56,13.20
2017,10,25,09,57,13.20
2017,10,25,09,58,13.20
2017,10,25,09,59,13.20
2017,10,25,10,00,13.20
2017,10,25,10,01,13.20
2017,10,25,10,02,13.20
2017,10,25,10,03,13.20
2017,10,25,10,04,13.20
2017,10,25,10,05,13.20
2017,10,25,10,06,13.20
2017,10,25,10,07,13.20
2017,10,25,10,08,13.20
2017,10,25,10,09,13.20
2017,10,25,10,10,13.10
2017,10,25,10,11,13.10
2017,10,25,10,12,13.10
2017,10,25,10,13,13.10
2017,10,25,10,14,13.10
2017,10,25,10,15,13.10
2017,10,25,10,16,13.10
2017,10,25,10,17,13.10
2017,10,25,10,18,13.10
2017,10,25,10,19,13.10
2017,10,25,10,20,13.10
2017,10,25,10,21,13.00
2017,10,25,10,22,13.00
2017,10,25,10,23,13.00
2017,10,25,10,24,13.10
2017,10,25,10,25,13.10
2017,10,25,10,26,13.10
2017,10,25,10,27,13.10
2017,10,25,10,28,13.10
2017,10,25,10,29,13.10
2017,10,25,10,30,13.10
2017,10,25,10,31,13.10
2017,10,25,10,32,13.10
2017,10,25,10,33,13.10
2017,10,25,10,34,13.10
2017,10,25,10,35,13.10
2017,10,25,10,36,13.20
2017,10,25,10,37,13.20
2017,10,25,10,38,13.20
2017,10,25,10,39,13.20
2017,10,25,10,40,13.30
2017,10,25,10,41,13.30
2017,10,25,10,42,13.30
2017,10,25,10,43,13.30
2017,10,25,10,44,13.30
2017,10,25,10,45,13.30
2017,10,25,10,46,13.30
2017,10,25,10,47,13.30
2017,10,25,10,48,13.30
2017,10,25,10,49,13.30
2017,10,25,10,50,13.30
2017,10,25,10,51,13.30
2017,10,25,10,52,13.40
2017,10,25,10,53,13.40
2017,10,25,10,54,13.40
2017,10,25,10,55,13.40
2017,10,25,10,56,13.40
2017,10,25,10,57,13.40
2017,10,25,10,58,13.40
2017,10,25,10,59,13.50
2017,10,25,11,00,13.50
2017,10,25,11,01,13.60
2017,10,25,11,02,13.60
2017,10,25,11,03,13.70
2017,10,25,11,04,13.70
2017,10,25,11,05,13.80
2017,10,25,11,06,13.80
2017,10,25,11,07,13.80
2017,10,25,11,08,13.90
2017,10,25,11,09,13.90
2017,10,25,11,10,14.00
2017,10,25,11,11,14.00
2017,10,25,11,12,14.10
2017,10,25,11,13,14.10
2017,10,25,11,14,14.10
2017,10,25,11,15,14.20
2017,10,25,11,16,14.20
2017,10,25,11,17,14.30
2017,10,25,11,18,14.30
2017,10,25,11,19,14.30
2017,10,25,11,20,14.40
2017,10,25,11,21,14.40
2017,10,25,11,22,14.50
2017,10,25,11,23,14.50
2017,10,25,11,24,14.50
2017,10,25,11,25,14.40
2017,10,25,11,26,14.40
2017,10,25,11,27,14.40
2017,10,25,11,28,14.30
2017,10,25,11,29,14.30
2017,10,25,11,30,14.30
2017,10,25,11,31,14.30
2017,10,25,11,32,14.30
2017,10,25,11,33,14.30
2017,10,25,11,34,14.40
2017,10,25,11,35,14.40
2017,10,25,11,36,14.40
2017,10,25,11,37,14.40
2017,10,25,11,38,14.40
2017,10,25,11,39,14.40
2017,10,25,11,40,14.40
2017,10,25,11,41,14.40
2017,10,25,11,42,14.30
2017,10,25,11,43,14.30
2017,10,25,11,44,14.30
2017,10,25,11,45,14.20
2017,10,25,11,46,14.10
2017,10,25,11,47,14.10
2017,10,25,11,48,14.00
2017,10,25,11,49,13.90
2017,10,25,11,50,13.90
2017,10,25,11,51,13.80
2017,10,25,11,52,13.70
2017,10,25,11,53,13.70
2017,10,25,11,54,13.60
2017,10,25,11,55,13.50
2017,10,25,11,56,13.40
2017,10,25,11,57,13.40
2017,10,25,11,58,13.30
2017,10,25,11,59,13.20
2017,10,25,12,00,13.20
2017,10,25,12,01,13.10
2017,10,25,12,02,13.10
2017,10,25,12,03,13.00
2017,10,25,12,04,12.90
2017,10,25,12,05,12.90
2017,10,25,12,06,12.80
2017,10,25,12,07,12.80
2017,10,25,12,08,12.70
2017,10,25,12,09,12.70
2017,10,25,12,10,12.60
2017,10,25,12,11,12.60
2017,10,25,12,12,12.50
2017,10,25,12,13,12.50
2017,10,25,12,14,12.40
2017,10,25,12,15,12.40
2017,10,25,12,16,12.40
2017,10,25,12,17,12.40
2017,10,25,12,18,12.40
2017,10,25,12,19,12.30
2017,10,25,12,20,12.30
2017,10,25,12,21,12.30
2017,10,25,12,22,12.30
2017,10,25,12,23,12.30
2017,10,25,12,24,12.30
2017,10,25,12,25,12.30
2017,10,25,12,26,12.30
2017,10,25,12,27,12.30
2017,10,25,12,28,12.30
2017,10,25,12,29,12.30
2017,10,25,12,30,12.30
2017,10,25,12,31,12.30
2017,10,25,12,32,12.30
2017,10,25,12,33,12.30
2017,10,25,12,34,12.30
2017,10,25,12,35,12.30
2017,10,25,12,36,12.30
2017,10,25,12,37,12.30
2017,10,25,12,38,12.30
2017,10,25,12,39,12.30
2017,10,25,12,40,12.30
2017,10,25,12,41,12.30
2017,10,25,12,42,12.30
2017,10,25,12,43,12.30
2017,10,25,12,44,12.30
2017,10,25,12,45,12.30
2017,10,25,12,46,12.30
2017,10,25,12,47,12.30
2017,10,25,12,48,12.30
2017,10,25,12,49,12.30
2017,10,25,12,50,12.20
2017,10,25,12,51,12.20
2017,10,25,12,52,12.20
2017,10,25,12,53,12.20
2017,10,25,12,54,12.20
2017,10,25,12,55,12.20
2017,10,25,12,56,12.20
2017,10,25,12,57,12.20
2017,10,25,12,58,12.20
2017,10,25,12,59,12.20
2017,10,25,13,00,12.20
2017,10,25,13,01,12.20
2017,10,25,13,02,12.20
2017,10,25,13,03,12.20
2017,10,25,13,04,12.20
2017,10,25,13,05,12.20
2017,10,25,13,06,12.20
2017,10,25,13,07,12.20
2017,10,25,13,08,12.20
2017,10,25,13,09,12.20
2017,10,25,13,10,12.20
2017,10,25,13,11,12.20
2017,10,25,13,12,12.20
2017,10,25,13,13,12.20
2017,10,25,13,14,12.20
2017,10,25,13,15,12.30
2017,10,25,13,16,12.30
2017,10,25,13,17,12.30
2017,10,25,13,18,12.30
2017,10,25,13,19,12.30
2017,10,25,13,20,12.30
2017,10,25,13,21,12.30
2017,10,25,13,22,12.40
2017,10,25,13,23,12.40
2017,10,25,13,24,12.40
2017,10,25,13,25,12.40
2017,10,25,13,26,12.40
2017,10,25,13,27,12.40
2017,10,25,13,28,12.40
2017,10,25,13,29,12.40
2017,10,25,13,30,12.40
2017,10,25,13,31,12.50
2017,10,25,13,32,12.40
2017,10,25,13,33,12.50
2017,10,25,13,34,12.50
2017,10,25,13,35,12.50
2017,10,25,13,36,12.50
2017,10,25,13,37,12.50
2017,10,25,13,38,12.50
2017,10,25,13,39,12.50
2017,10,25,13,40,12.50
2017,10,25,13,41,12.50
2017,10,25,13,42,12.60
2017,10,25,13,43,12.60
2017,10,25,13,44,12.60
2017,10,25,13,45,12.60
2017,10,25,13,46,12.60
2017,10,25,13,47,12.60
2017,10,25,13,48,12.60
2017,10,25,13,49,12.60
2017,10,25,13,50,12.60
2017,10,25,13,51,12.60
2017,10,25,13,52,12.60
2017,10,25,13,53,12.60
2017,10,25,13,54,12.60
2017,10,25,13,55,12.60
2017,10,25,13,56,12.60
2017,10,25,13,57,12.60
2017,10,25,13,58,12.60
2017,10,25,13,59,12.60
2017,10,25,14,00,12.60
2017,10,25,14,01,12.60
2017,10,25,14,02,12.60
2017,10,25,14,03,12.60
2017,10,25,14,04,12.60
2017,10,25,14,05,12.60
2017,10,25,14,06,12.60
2017,10,25,14,07,12.70
2017,10,25,14,08,12.70
2017,10,25,14,09,12.70
2017,10,25,14,10,12.70
2017,10,25,14,11,12.70
2017,10,25,14,12,12.80
2017,10,25,14,13,12.80
2017,10,25,14,14,12.80
2017,10,25,14,15,12.80
2017,10,25,14,16,12.80
2017,10,25,14,17,12.80
2017,10,25,14,18,12.80
2017,10,25,14,19,12.80
2017,10,25,14,20,12.80
2017,10,25,14,21,12.80
2017,10,25,14,22,12.80
2017,10,25,14,23,12.80
2017,10,25,14,24,12.80
2017,10,25,14,25,12.80
2017,10,25,14,26,12.80
2017,10,25,14,27,12.90
2017,10,25,14,28,12.90
2017,10,25,14,29,12.90
2017,10,25,14,30,12.90
2017,10,25,14,31,13.00
2017,10,25,14,32,13.10
2017,10,25,14,33,13.10
2017,10,25,14,34,13.20
2017,10,25,14,35,13.20
2017,10,25,14,36,13.20
2017,10,25,14,37,13.20
2017,10,25,14,38,13.30
2017,10,25,14,39,13.30
2017,10,25,14,40,13.30
2017,10,25,14,41,13.30
2017,10,25,14,42,13.40
2017,10,25,14,43,13.40
2017,10,25,14,44,13.40
2017,10,25,14,45,13.40
2017,10,25,14,46,13.40
2017,10,25,14,47,13.40
2017,10,25,14,48,13.40
2017,10,25,14,49,13.30
2017,10,25,14,50,13.30
2017,10,25,14,51,13.30
2017,10,25,14,52,13.30
2017,10,25,14,53,13.20
2017,10,25,14,54,13.20
2017,10,25,14,55,13.20
2017,10,25,14,56,13.20
2017,10,25,14,57,13.20
2017,10,25,14,58,13.20
2017,10,25,14,59,13.20
2017,10,25,15,00,13.20
2017,10,25,15,01,13.10
2017,10,25,15,02,13.10
2017,10,25,15,03,13.10
2017,10,25,15,04,13.10
2017,10,25,15,05,13.10
2017,10,25,15,06,13.00
2017,10,25,15,07,13.00
2017,10,25,15,08,13.00
2017,10,25,15,09,13.00
2017,10,25,15,10,13.00
2017,10,25,15,11,13.00
2017,10,25,15,12,13.00
2017,10,25,15,13,12.90
2017,10,25,15,14,12.90
2017,10,25,15,15,12.90
2017,10,25,15,16,13.00
2017,10,25,15,17,12.90
2017,10,25,15,18,13.00
2017,10,25,15,19,13.00
2017,10,25,15,20,13.00
2017,10,25,15,21,13.00
2017,10,25,15,22,13.10
2017,10,25,15,23,13.20
2017,10,25,15,24,13.20
2017,10,25,15,25,13.20
2017,10,25,15,26,13.20
2017,10,25,15,27,13.30
2017,10,25,15,28,13.30
2017,10,25,15,29,13.30
2017,10,25,15,30,13.30
2017,10,25,15,31,13.40
2017,10,25,15,32,13.40
2017,10,25,15,33,13.40
2017,10,25,15,34,13.50
2017,10,25,15,35,13.50
2017,10,25,15,36,13.50
2017,10,25,15,37,13.50
2017,10,25,15,38,13.50
2017,10,25,15,39,13.50
2017,10,25,15,40,13.50
2017,10,25,15,41,13.50
2017,10,25,15,42,13.50
2017,10,25,15,43,13.50
2017,10,25,15,44,13.60
2017,10,25,15,45,13.60
2017,10,25,15,46,13.60
2017,10,25,15,47,13.60
2017,10,25,15,48,13.60
2017,10,25,15,49,13.60
2017,10,25,15,50,13.60
2017,10,25,15,51,13.60
2017,10,25,15,52,13.60
2017,10,25,15,53,13.50
2017,10,25,15,54,13.50
2017,10,25,15,55,13.40
2017,10,25,15,56,13.40
2017,10,25,15,57,13.30
2017,10,25,15,58,13.30
2017,10,25,15,59,13.30
2017,10,25,16,00,13.20
2017,10,25,16,01,13.20
2017,10,25,16,02,13.20
2017,10,25,16,03,13.20
2017,10,25,16,04,13.20
2017,10,25,16,05,13.20
2017,10,25,16,06,13.20
2017,10,25,16,07,13.30
2017,10,25,16,08,13.20
2017,10,25,16,09,13.20
2017,10,25,16,10,13.20
2017,10,25,16,11,13.20
2017,10,25,16,12,13.20
2017,10,25,16,13,13.20
2017,10,25,16,14,13.20
2017,10,25,16,15,13.20
2017,10,25,16,16,13.30
2017,10,25,16,17,13.30
2017,10,25,16,18,13.30
2017,10,25,16,19,13.30
2017,10,25,16,20,13.30
2017,10,25,16,21,13.30
2017,10,25,16,22,13.30
2017,10,25,16,23,13.30
2017,10,25,16,24,13.30
2017,10,25,16,25,13.30
2017,10,25,16,26,13.30
2017,10,25,16,27,13.30
2017,10,25,16,28,13.30
2017,10,25,16,29,13.20
2017,10,25,16,30,13.20
2017,10,25,16,31,13.20
2017,10,25,16,32,13.10
2017,10,25,16,33,13.10
2017,10,25,16,34,13.10
2017,10,25,16,35,13.10
2017,10,25,16,36,13.10
2017,10,25,16,37,13.10
2017,10,25,16,38,13.10
2017,10,25,16,39,13.10
2017,10,25,16,40,13.10
2017,10,25,16,41,13.10
2017,10,25,16,42,13.10
2017,10,25,16,43,13.10
2017,10,25,16,44,13.10
2017,10,25,16,45,13.10
2017,10,25,16,46,13.10
2017,10,25,16,47,13.10
2017,10,25,16,48,13.10
2017,10,25,16,49,13.10
2017,10,25,16,50,13.10
2017,10,25,16,51,13.10
2017,10,25,16,52,13.10
2017,10,25,16,53,13.10
2017,10,25,16,54,13.10
2017,10,25,16,55,13.10
2017,10,25,16,56,13.00
2017,10,25,16,57,13.00
2017,10,25,16,58,13.00
2017,10,25,16,59,13.00
2017,10,25,17,00,13.00
2017,10,25,17,01,13.00
2017,10,25,17,02,13.00
2017,10,25,17,03,13.00
2017,10,25,17,04,13.00
2017,10,25,17,05,13.00
2017,10,25,17,06,12.90
2017,10,25,17,07,12.90
2017,10,25,17,08,12.90
2017,10,25,17,09,12.90
2017,10,25,17,10,12.80
2017,10,25,17,11,12.80
2017,10,25,17,12,12.80
2017,10,25,17,13,12.70
2017,10,25,17,14,12.70
2017,10,25,17,15,12.70
2017,10,25,17,16,12.70
2017,10,25,17,17,12.60
2017,10,25,17,18,12.60
2017,10,25,17,19,12.60
2017,10,25,17,20,12.60
2017,10,25,17,21,12.50
2017,10,25,17,22,12.50
2017,10,25,17,23,12.40
2017,10,25,17,24,12.40
2017,10,25,17,25,12.30
2017,10,25,17,26,12.30
2017,10,25,17,27,12.20
2017,10,25,17,28,12.20
2017,10,25,17,29,12.20
2017,10,25,17,30,12.20
2017,10,25,17,31,12.10